Location: Marcé
(47.5801°N, 0.3280°W)
Time: 10:35:32
(UTC+01:00)

Vanguard 3 - Pass Details

Date: 03 December 2021
Orbit: 508 x 3260 km, 33.3° (Epoch: 17 January)

Event Time Altitude Azimuth Distance (km) Brightness Sun altitude
Exits shadow 06:31:55 - 245° (WSW) 6,557 11.3 -19.3°
Reaches altitude 10° 06:33:46 10° 243° (WSW) 6,190 11.2 -19.0°
Maximum altitude 06:51:36 47° 178° (S) 3,370 10.3 -16.1°
Drops below altitude 10° 07:04:09 10° 110° (ESE) 4,465 12.4 -14.0°
Sets 07:07:11 0° 105° (ESE) 5,137 13.3 -13.6°
